When you browse on this site, cookies collect data to enhance your experience and personalize the content and advertising you see.
Visit our Privacy Policy to learn more. By continuing to use the site, you agree to this use of cookies and data.

Tiempo cada hora Durres

Hoy, 13 Julio, Lunes

Tiempo Temperatura Precipitaciones Viento Presión Humedad
00:00 +23°C° 0 mm 5 mps 760 mmHg 77%
01:00 +23°C° 0 mm 4 mps 760 mmHg 77%
02:00 +22°C° 0 mm 5 mps 760 mmHg 77%
03:00 +22°C° 0 mm 6 mps 759 mmHg 76%
04:00 +22°C° 0 mm 6 mps 759 mmHg 75%
05:00 +23°C° 0 mm 6 mps 759 mmHg 67%
06:00 +26°C° 0 mm 6 mps 760 mmHg 60%
07:00 +27°C° 0 mm 6 mps 760 mmHg 52%
08:00 +29°C° 0 mm 7 mps 760 mmHg 48%
09:00 +30°C° 0 mm 7 mps 759 mmHg 43%
10:00 +33°C° 0 mm 8 mps 759 mmHg 39%
11:00 +34°C° 0 mm 8 mps 759 mmHg 36%
12:00 +35°C° 0 mm 8 mps 759 mmHg 34%
13:00 +35°C° 0 mm 9 mps 759 mmHg 31%
14:00 +35°C° 0 mm 9 mps 758 mmHg 32%
15:00 +34°C° 0 mm 9 mps 758 mmHg 33%
16:00 +34°C° 0 mm 10 mps 757 mmHg 34%
17:00 +32°C° 0 mm 10 mps 757 mmHg 39%
18:00 +29°C° 0 mm 10 mps 757 mmHg 44%
19:00 +28°C° 0 mm 10 mps 758 mmHg 49%
20:00 +26°C° 0 mm 9 mps 758 mmHg 52%
21:00 +24°C° 0 mm 8 mps 758 mmHg 56%
22:00 +22°C° 0 mm 7 mps 758 mmHg 60%
23:00 +22°C° 0 mm 6 mps 758 mmHg 58%

Mañana, 14 Julio, Martes

Tiempo Temperatura Precipitaciones Viento Presión Humedad
00:00 +21°C° 0 mm 6 mps 758 mmHg 56%
01:00 +20°C° 0 mm 6 mps 758 mmHg 54%
02:00 +20°C° 0 mm 6 mps 758 mmHg 52%
03:00 +19°C° 0 mm 6 mps 758 mmHg 51%
04:00 +19°C° 0 mm 6 mps 758 mmHg 50%
05:00 +21°C° 0 mm 6 mps 758 mmHg 46%
06:00 +23°C° 0 mm 5 mps 758 mmHg 42%
07:00 +26°C° 0 mm 4 mps 758 mmHg 38%
08:00 +28°C° 0 mm 4 mps 758 mmHg 35%
09:00 +29°C° 0 mm 4 mps 758 mmHg 33%
10:00 +32°C° 0 mm 4 mps 758 mmHg 31%
11:00 +33°C° 0 mm 4 mps 758 mmHg 30%
12:00 +33°C° 0 mm 5 mps 758 mmHg 30%
13:00 +34°C° 0 mm 5 mps 757 mmHg 30%
14:00 +33°C° 0 mm 5 mps 757 mmHg 33%
15:00 +33°C° 0 mm 6 mps 757 mmHg 37%
16:00 +32°C° 0 mm 6 mps 757 mmHg 40%
17:00 +29°C° 0 mm 6 mps 757 mmHg 46%
18:00 +27°C° 0 mm 5 mps 757 mmHg 52%
19:00 +25°C° 0 mm 5 mps 757 mmHg 58%
20:00 +23°C° 0 mm 4 mps 758 mmHg 61%
21:00 +22°C° 0 mm 3 mps 758 mmHg 64%
22:00 +23°C° 0 mm 2 mps 758 mmHg 68%
23:00 +22°C° 0 mm 1 mps 758 mmHg 69%

Pasado mañana, 15 Julio, Miércoles

Tiempo Temperatura Precipitaciones Viento Presión Humedad
00:00 +22°C° 0 mm 1 mps 759 mmHg 70%
01:00 +22°C° 0 mm 1 mps 759 mmHg 71%
02:00 +22°C° 0 mm 1 mps 759 mmHg 72%
03:00 +21°C° 0 mm 1 mps 759 mmHg 73%
04:00 +21°C° 0 mm 1 mps 758 mmHg 74%
05:00 +23°C° 0 mm 1 mps 759 mmHg 67%
06:00 +25°C° 0 mm 1 mps 759 mmHg 60%
07:00 +27°C° 0 mm 1 mps 759 mmHg 53%
08:00 +29°C° 0 mm 1 mps 759 mmHg 47%
09:00 +30°C° 0 mm 1 mps 759 mmHg 42%
10:00 +32°C° 0 mm 1 mps 759 mmHg 36%
11:00 +32°C° 0 mm 2 mps 759 mmHg 36%
12:00 +33°C° 0 mm 3 mps 759 mmHg 35%
13:00 +34°C° 0 mm 3 mps 759 mmHg 35%
14:00 +33°C° 0 mm 3 mps 759 mmHg 34%
15:00 +32°C° 0 mm 2 mps 759 mmHg 33%
16:00 +31°C° 0 mm 1 mps 758 mmHg 33%
17:00 +29°C° 0 mm 2 mps 759 mmHg 38%
18:00 +27°C° 0 mm 2 mps 759 mmHg 43%
19:00 +26°C° 0 mm 3 mps 759 mmHg 48%
20:00 +25°C° 0 mm 3 mps 759 mmHg 54%
21:00 +23°C° 0 mm 4 mps 759 mmHg 60%
22:00 +22°C° 0 mm 4 mps 759 mmHg 67%
23:00 +22°C° 0.5 mm 4 mps 759 mmHg 66%

16 Julio, Jueves

Tiempo Temperatura Precipitaciones Viento Presión Humedad
00:00 +21°C° 0.5 mm 4 mps 759 mmHg 66%
01:00 +21°C° 0.5 mm 4 mps 759 mmHg 66%
02:00 +21°C° 0.3 mm 4 mps 759 mmHg 64%
03:00 +21°C° 0.3 mm 4 mps 758 mmHg 62%
04:00 +22°C° 0.3 mm 4 mps 758 mmHg 60%
05:00 +23°C° 0.2 mm 4 mps 758 mmHg 55%
06:00 +26°C° 0.2 mm 3 mps 758 mmHg 51%
07:00 +28°C° 0.2 mm 3 mps 758 mmHg 47%
08:00 +29°C° 0.1 mm 3 mps 758 mmHg 43%
09:00 +32°C° 0.1 mm 4 mps 758 mmHg 40%
10:00 +33°C° 0.1 mm 4 mps 758 mmHg 37%
11:00 +34°C° 0 mm 5 mps 758 mmHg 37%
12:00 +34°C° 0 mm 5 mps 757 mmHg 38%
13:00 +34°C° 0 mm 5 mps 757 mmHg 39%
14:00 +33°C° 0 mm 5 mps 757 mmHg 39%
15:00 +33°C° 0 mm 4 mps 757 mmHg 40%
16:00 +33°C° 0 mm 3 mps 756 mmHg 40%
17:00 +30°C° 0 mm 3 mps 756 mmHg 50%
18:00 +28°C° 0 mm 2 mps 756 mmHg 59%
19:00 +26°C° 0 mm 2 mps 757 mmHg 69%
20:00 +25°C° 0 mm 2 mps 757 mmHg 73%
21:00 +24°C° 0 mm 1 mps 757 mmHg 77%
22:00 +23°C° 0 mm 1 mps 757 mmHg 82%
23:00 +23°C° 0 mm 1 mps 757 mmHg 80%

17 Julio, Viernes

Tiempo Temperatura Precipitaciones Viento Presión Humedad
00:00 +22°C° 0 mm 1 mps 757 mmHg 78%
01:00 +21°C° 0 mm 2 mps 756 mmHg 77%
02:00 +21°C° 0 mm 2 mps 756 mmHg 76%
03:00 +21°C° 0 mm 2 mps 756 mmHg 75%
04:00 +20°C° 0 mm 2 mps 755 mmHg 74%
05:00 +23°C° 0 mm 2 mps 755 mmHg 65%
06:00 +25°C° 0 mm 2 mps 756 mmHg 57%
07:00 +27°C° 0 mm 2 mps 756 mmHg 49%
08:00 +30°C° 0 mm 2 mps 755 mmHg 43%
09:00 +32°C° 0 mm 1 mps 755 mmHg 37%
10:00 +34°C° 0 mm 1 mps 755 mmHg 30%
11:00 +35°C° 0 mm 2 mps 755 mmHg 31%
12:00 +35°C° 0 mm 3 mps 755 mmHg 32%
13:00 +35°C° 0 mm 4 mps 754 mmHg 32%
14:00 +34°C° 0 mm 4 mps 754 mmHg 33%
15:00 +34°C° 0 mm 3 mps 754 mmHg 34%
16:00 +33°C° 0 mm 3 mps 754 mmHg 36%
17:00 +31°C° 0 mm 3 mps 754 mmHg 43%
18:00 +29°C° 0 mm 2 mps 754 mmHg 51%
19:00 +27°C° 0 mm 2 mps 754 mmHg 58%
20:00 +26°C° 0 mm 2 mps 754 mmHg 63%
21:00 +24°C° 0 mm 1 mps 754 mmHg 68%
22:00 +23°C° 0 mm 1 mps 755 mmHg 73%
23:00 +24°C° 0 mm 1 mps 755 mmHg 70%

18 Julio, Sábado

Tiempo Temperatura Precipitaciones Viento Presión Humedad
00:00 +24°C° 0 mm 2 mps 754 mmHg 67%
01:00 +24°C° 0 mm 2 mps 754 mmHg 64%
02:00 +24°C° 0.2 mm 2 mps 754 mmHg 64%
03:00 +24°C° 0.2 mm 2 mps 754 mmHg 63%
04:00 +24°C° 0.2 mm 3 mps 754 mmHg 63%
05:00 +25°C° 0.5 mm 3 mps 754 mmHg 59%
06:00 +26°C° 0.5 mm 3 mps 754 mmHg 55%
07:00 +27°C° 0.5 mm 4 mps 754 mmHg 52%
08:00 +28°C° 0.2 mm 4 mps 754 mmHg 50%
09:00 +29°C° 0.2 mm 5 mps 754 mmHg 48%
10:00 +30°C° 0.2 mm 6 mps 754 mmHg 46%
11:00 +30°C° 0.2 mm 6 mps 754 mmHg 49%
12:00 +29°C° 0.2 mm 6 mps 754 mmHg 52%
13:00 +28°C° 0.2 mm 6 mps 754 mmHg 55%
14:00 +28°C° 0.1 mm 5 mps 754 mmHg 59%
15:00 +27°C° 0.1 mm 5 mps 754 mmHg 62%
16:00 +26°C° 0.1 mm 4 mps 754 mmHg 66%
17:00 +25°C° 0 mm 5 mps 754 mmHg 69%
18:00 +23°C° 0 mm 5 mps 754 mmHg 73%
19:00 +22°C° 0 mm 5 mps 754 mmHg 76%
20:00 +22°C° 0 mm 5 mps 754 mmHg 76%
21:00 +22°C° 0 mm 4 mps 754 mmHg 76%
22:00 +22°C° 0 mm 4 mps 755 mmHg 76%
23:00 +21°C° 0 mm 4 mps 755 mmHg 78%
Mostrar más